SCP
0 0 0 0 0 0 0 0 0 0 0 0 0 0 0 0 0 0 0 0 0 0 0 0 0 0 0 0 0 0 0 0 0 0 0 0 0 0 0 0 0 0 0 0 0
0 0 0 0 0 0 0 0 0 0 0 0 0 0 0 0 0 0 0 0 0 0 0 0 0 0 1 0 0 0 0 0 0 0 0 0 0 0 0 0 0 0 0 0 0
0 0 0 0 0 0 0 0 0 0 -0 0 0 0 0 0 0 0 -0 0 0 0 0 0 0 0 0 0 0 0 0 0 0 0 0 0 0 0 0 0 0 0 0 0 0
0 0 0 0 0 0 0 0 0 0 -0 -0 0 0 0 0 0 0 0 0 0 0 0 0 0 0 0 0 0 0 0 0 0 0 0 0 0 0 0 0 0 0 0 0 0
0 0 0 0 0 0 0 0 0 0 -0 -0 0 0 0 0 0 0 0 0 0 0 0 0 0 0 0 0 0 0 0 0 0 0 0 0 0 0 0 0 0 0 0 0 0
0 0 0 0 0 0 0 0 -0 -0 0 0 0 0 0 0 0 0 0 0 0 0 0 0 0 0 0 0 0 0 0 0 0 0 0 0 0 -0 0 -0 0 0 0 0 0
0 0 0 0 0 0 0 -0 -0 -0 -0 0 0 0 0 0 0 0 0 0 0 0 0 0 0 0 0 0 0 0 0 0 0 0 0 0 0 -0 -0 -0 0 0 0 0 0
0 0 0 0 0 0 0 -0 -0 -0 -0 0 0 0 0 -0 0 0 0 0 0 0 0 0 0 0 0 0 0 0 0 0 0 0 0 0 0 -0 -0 -0 0 0 0 0 0
0 0 0 0 0 -0 -0 -0 0 0 -0 0 0 0 -0 0 0 0 0 0 0 0 0 0 0 0 0 0 0 0 0 0 0 0 0 0 0 0 0 -0 0 0 0 0 0
0 0 0 0 0 -0 -0 0 0 0 0 0 0 0 0 0 0 0 0 0 0 0 0 0 0 0 0 0 0 0 0 0 0 0 0 0 0 0 0 0 0 0 0 0 0
0 0 0 0 0 0 0 0 0 0 0 0 0 0 0 0 0 0 -0 0 0 0 0 0 0 0 0 0 0 0 0 0 0 0 0 0 0 0 0 0 0 0 0 0 0
0 0 0 0 0 0 0 0 0 0 0 0 0 -0 0 0 0 0 -0 0 0 0 0 0 0 0 0 0 0 0 0 0 0 0 0 0 0 0 0 0 0 0 0 0 0
0 0 0 -0 0 0 0 0 0 0 0 -0 0 -0 0 0 0 0 0 0 0 0 0 0 0 0 0 0 0 0 0 0 0 0 0 0 0 0 0 0 0 0 0 0 0
0 -0 -0 0 0 0 0 0 0 0 0 0 0 -0 0 0 0 0 0 0 0 0 0 0 0 0 0 0 0 0 0 0 0 0 0 0 0 0 0 0 0 0 0 0 0
0 -0 0 0 0 0 0 0 0 0 0 0 -0 -0 0 0 0 0 0 0 0 0 0 0 0 0 0 0 0 0 0 0 0 0 0 0 0 0 0 0 -0 0 -0 0 0
0 0 0 0 0 0 0 0 0 0 0 0 -0 -0 0 0 0 0 0 0 0 0 0 0 0 0 0 0 0 0 0 0 0 0 0 0 0 0 0 0 0 0 0 -0 0
0 0 0 0 0 0 0 0 0 0 0 0 0 -0 0 0 0 0 0 0 0 0 0 0 0 0 0 0 0 0 0 0 0 0 0 0 0 0 0 0 0 0 0 0 0
0 0 0 0 0 0 0 0 0 0 0 0 -0 -0 0 0 0 0 0 0 0 0 0 0 0 0 0 0 0 0 0 0 0 0 0 0 0 0 0 0 0 0 0 0 0
0 0 0 0 0 0 0 0 0 0 0 0 -0 -0 -0 0 0 0 0 0 0 0 0 0 0 0 0 0 0 0 0 0 0 0 0 0 0 0 0 0 0 0 0 0 0
0 0 0 0 0 0 0 0 0 0 0 0 0 0 -0 -0 0 0 0 0 0 0 0 0 0 0 0 0 0 0 0 0 0 0 0 0 0 0 0 0 0 0 0 0 0
0 0 0 0 0 0 0 0 -0 -0 0 0 0 0 -0 0 0 0 0 0 0 0 0 0 0 0 0 0 0 0 0 0 0 0 0 -0 0 0 0 0 0 0 0 0 0
0 0 0 0 0 -0 0 -0 0 0 0 -0 0 0 -0 -0 0 0 0 0 0 0 0 0 0 0 0 0 0 0 0 0 0 0 0 0 0 0 0 -0 -0 0 -0 0 0
0 0 0 0 0 0 0 0 0 0 -0 -0 -0 -0 0 0 0 0 0 0 0 0 0 0 0 0 0 0 0 0 0 0 0 0 0 0 0 0 0 0 0 -0 -0 -0 0
0 0 0 0 0 0 -0 -0 -0 0 0 0 0 0 0 0 0 0 0 0 0 0 0 0 0 0 0 0 0 0 0 0 0 0 0 0 0 0 0 0 -0 -0 -0 0 0
0 0 0 0 0 0 0 -0 -0 -0 0 -0 0 0 0 0 0 0 0 0 0 0 0 0 0 0 0 0 0 0 0 0 0 0 0 0 0 0 0 0 0 0 0 0 0
0 0 0 0 0 0 0 0 -0 -0 0 0 0 0 0 0 0 -0 0 0 0 0 0 0 0 0 0 0 0 0 0 0 0 0 0 0 0 0 0 0 0 0 0 0 0
0 0 0 0 0 0 0 -0 -0 -0 0 0 0 0 0 0 0 0 0 0 0 0 0 0 0 0 0 0 0 0 0 0 0 0 0 -0 0 0 0 0 0 0 0 0 0
Wind_Speed_500mb
41 40 40 40 41 37 35 31 27 20 15 14 10 14 19 22 23 27 37 34 50 15 27 33 31 22 34 29 41 22 6 5 7 10 10 10 3 6 13 16 27 21 28 23 21
43 39 37 39 38 39 36 26 22 18 17 15 14 11 15 18 17 25 38 35 33 38 16 38 38 31 20 23 24 16 17 12 4 3 6 11 10 5 9 14 7 28 32 10 30
46 46 35 36 35 32 31 29 23 21 19 15 10 6 8 8 7 10 32 42 28 32 27 35 38 35 19 27 21 21 26 20 11 9 12 8 5 5 4 7 7 28 40 10 26
31 44 45 30 32 30 26 21 21 18 17 15 10 3 8 15 7 7 12 37 30 25 26 27 39 32 11 17 24 17 45 39 37 12 9 6 6 6 5 5 7 23 33 31 26
27 29 41 39 29 26 23 18 18 18 16 14 13 6 7 11 8 15 8 26 34 31 37 28 45 30 10 17 22 14 24 39 58 13 1 9 7 8 27 29 25 24 27 42 15
36 29 24 37 30 24 20 19 14 14 14 8 18 2 5 3 12 23 9 10 23 32 45 30 34 34 13 27 18 21 19 46 35 26 25 21 13 8 28 16 20 30 22 39 25
39 37 26 24 30 26 19 19 17 12 12 8 11 6 3 9 15 10 26 17 25 43 48 36 26 35 10 10 19 5 16 15 28 38 15 22 30 30 32 38 39 39 30 35 33
38 39 37 27 17 25 19 17 18 10 9 8 3 4 1 8 15 11 4 8 30 39 42 40 14 42 4 15 11 8 11 13 11 34 18 28 28 26 29 30 42 43 50 38 33
40 37 38 28 20 16 17 12 13 8 5 5 4 6 2 7 6 13 16 10 33 38 34 40 26 18 10 12 7 7 13 17 15 31 17 21 7 12 18 31 56 48 47 44 41
41 39 37 30 21 16 13 11 9 6 3 3 6 3 8 12 3 6 4 11 43 38 32 23 16 8 6 10 25 17 10 7 8 16 12 16 5 12 14 27 48 55 61 56 49
41 40 36 31 21 14 9 7 4 3 2 2 2 4 6 6 6 4 11 9 42 35 11 2 16 32 19 11 8 13 9 12 7 18 14 17 8 15 21 19 28 42 54 61 57
39 38 36 32 20 11 6 2 4 2 2 0 3 7 7 9 4 10 12 5 23 19 14 6 7 15 20 14 11 17 13 6 4 17 15 17 26 27 24 22 37 45 62 63 71
38 36 32 31 13 9 7 5 6 7 3 2 2 4 3 6 7 13 8 17 21 11 9 6 10 14 20 12 13 4 17 10 11 9 4 14 12 18 14 24 40 53 59 62 66
38 36 29 19 4 9 7 10 5 2 4 2 3 2 3 4 7 13 11 10 7 14 7 5 21 22 15 15 11 7 9 14 20 18 10 4 8 9 24 30 34 52 61 65 68
38 33 24 3 3 10 5 10 2 5 6 2 2 1 3 6 10 11 9 9 9 14 6 4 24 31 23 13 12 8 10 11 7 8 6 1 4 8 12 37 36 41 52 64 56
35 23 10 3 9 9 10 7 4 9 3 5 1 2 5 4 1 7 8 17 20 10 2 9 8 7 10 3 2 15 12 13 8 5 3 7 8 9 10 16 8 37 58 71 70
24 11 7 10 7 16 9 4 6 8 7 8 6 5 2 2 3 5 4 10 7 9 8 9 6 5 7 12 8 9 10 5 3 2 7 2 6 19 11 12 9 14 35 49 67
11 14 16 14 16 13 7 6 11 1 8 6 7 4 4 6 2 9 11 6 3 8 5 6 15 3 9 7 12 5 8 8 12 8 5 2 10 10 8 8 14 22 27 26 24
15 16 14 16 13 9 1 8 9 7 3 13 9 6 1 4 5 0 4 5 6 6 6 7 7 5 7 3 3 6 2 5 12 5 3 5 8 18 9 11 9 18 20 24 32
19 15 13 11 10 6 4 4 2 6 11 2 6 9 9 6 6 2 1 3 6 4 4 5 11 8 3 1 11 6 11 4 4 6 7 3 6 8 3 6 14 15 22 23 22
16 7 6 10 8 1 0 7 6 8 11 9 8 6 3 9 9 7 8 4 4 3 2 7 6 6 6 3 12 5 1 7 7 4 5 1 7 11 10 6 12 25 27 16 20
9 5 3 12 3 2 4 8 2 1 4 5 3 8 3 6 10 1 9 3 15 14 7 6 8 9 4 2 5 5 7 9 7 7 2 3 11 7 12 10 7 19 16 11 9
11 8 7 9 2 5 8 5 1 6 5 6 4 3 11 10 7 6 4 4 20 11 11 9 3 8 4 6 4 5 7 5 6 5 10 7 8 6 4 9 12 9 9 4 12
10 5 4 7 4 3 7 7 3 7 6 4 5 6 7 6 8 8 4 3 9 6 12 9 6 8 10 7 8 10 10 10 6 5 8 26 22 23 27 22 25 30 26 14 29
7 3 7 5 5 2 3 4 3 6 7 23 10 10 3 7 5 6 5 6 12 8 9 6 6 4 2 2 5 6 8 19 25 27 21 27 31 20 18 22 35 43 34 25 37
10 10 9 4 2 3 7 8 6 9 9 6 9 11 10 9 3 9 10 4 5 7 5 7 2 3 8 6 2 9 14 14 27 33 27 36 42 30 61 48 34 44 38 35 43
13 18 11 6 2 5 1 1 4 3 9 13 4 5 14 5 7 4 3 5 13 12 7 8 9 4 4 5 5 11 18 23 9 11 17 25 38 22 24 27 35 49 47 46 51
Wind_Direction_500mb
351 353 356 355 356 354 351 353 350 349 335 320 290 241 253 265 242 227 223 221 208 195 199 194 191 189 192 182 192 191 39 223 205 167 135 112 124 77 104 50 69 55 23 318 182
347 351 353 353 353 359 358 352 352 358 347 319 310 298 266 260 246 231 222 223 213 218 186 192 183 178 169 169 172 160 201 243 183 32 120 92 86 10 109 76 19 24 24 16 175
340 347 351 356 354 360 0 0 349 348 346 352 332 298 263 240 224 244 251 208 211 212 207 187 188 180 175 168 183 171 200 189 242 146 115 76 66 16 93 99 53 357 2 349 189
337 339 349 349 351 359 357 5 2 7 5 5 348 308 218 179 198 177 194 208 206 185 199 184 183 182 157 168 186 180 217 219 233 127 156 175 210 292 231 187 333 353 358 359 221
327 332 338 342 345 353 355 354 5 4 9 22 14 2 179 202 229 208 88 204 197 200 200 178 178 175 171 173 157 199 162 190 217 205 202 174 215 253 266 272 279 293 337 0 247
338 326 325 335 337 339 348 343 345 351 358 25 7 14 198 238 272 243 227 217 203 193 198 190 185 181 186 175 163 189 186 198 188 184 243 281 252 236 265 268 271 280 313 343 340
332 335 321 306 334 326 329 337 324 340 349 346 9 95 232 278 293 308 234 292 191 196 195 194 180 181 168 133 172 101 163 141 175 169 173 222 268 233 258 269 280 275 281 320 344
336 330 329 330 316 324 313 328 314 325 340 359 353 334 294 339 276 213 256 237 199 192 207 193 175 189 139 124 113 138 144 177 160 158 172 156 248 265 278 272 274 270 269 284 323
332 329 328 333 312 306 308 305 333 323 312 25 20 4 56 11 343 79 9 271 181 183 190 200 169 175 127 127 113 203 183 181 172 180 160 203 195 243 243 246 258 260 265 269 297
325 328 330 327 314 291 303 283 292 320 308 318 6 356 52 331 8 331 339 172 172 170 165 177 171 130 109 169 190 179 118 146 162 183 171 204 264 330 228 214 238 236 254 261 279
324 326 328 321 317 292 304 298 279 265 270 69 62 316 340 16 7 64 45 127 166 144 167 237 171 187 163 150 126 118 121 121 134 173 175 191 208 251 231 225 244 237 239 252 265
323 322 324 320 321 269 254 208 117 2 135 321 308 317 332 344 351 60 100 58 158 134 126 124 136 149 126 128 126 138 125 154 71 170 167 181 220 228 206 222 225 226 237 252 259
320 323 324 321 316 245 212 180 133 19 79 5 41 360 37 21 357 25 85 109 111 102 80 108 157 161 142 134 115 86 162 176 151 139 250 163 243 231 227 223 226 234 245 241 247
321 321 320 323 303 202 187 176 155 336 82 111 60 20 74 67 21 28 90 108 49 100 77 7 148 158 162 154 129 139 187 156 142 139 194 188 266 237 217 229 219 221 235 232 243
322 324 320 277 168 164 164 171 184 151 93 62 46 144 62 79 137 23 71 98 95 121 117 68 168 156 170 158 145 191 145 130 108 99 123 351 297 267 209 227 225 225 235 236 249
334 332 312 157 197 156 155 155 141 45 52 113 43 94 35 34 84 75 49 79 93 82 72 256 104 100 170 129 182 134 94 58 61 87 283 211 194 251 214 233 232 223 226 237 240
348 15 93 85 99 142 146 136 27 96 198 144 120 178 221 109 144 136 90 129 144 131 189 84 82 59 68 103 35 87 91 86 108 191 222 147 199 264 257 241 220 238 244 241 239
46 79 89 78 113 121 134 38 62 262 59 149 123 88 137 163 66 167 141 141 101 114 77 113 139 26 346 110 155 172 149 149 173 188 212 37 228 246 257 311 292 280 271 259 239
112 107 91 112 126 150 48 61 201 213 126 132 97 119 164 229 152 40 65 137 148 141 129 121 94 142 60 125 95 182 164 132 104 30 68 216 289 286 317 316 337 296 280 277 256
136 102 82 131 154 146 70 279 142 209 115 110 171 193 162 164 83 112 216 135 124 170 202 171 106 32 108 119 44 137 154 74 11 138 236 275 268 236 270 311 316 325 324 288 261
144 88 73 157 155 97 159 231 253 214 192 157 187 133 107 137 156 182 204 14 115 119 47 134 82 116 107 216 167 129 133 55 112 120 186 269 261 211 208 240 291 305 331 304 252
155 88 154 153 278 341 238 206 281 42 173 236 169 96 71 113 155 183 209 254 179 165 132 197 120 130 134 89 125 105 171 151 146 234 131 139 258 202 220 255 274 339 359 346 242
137 114 161 183 313 284 282 285 16 27 36 26 68 85 146 176 112 219 163 264 170 161 164 185 94 104 116 157 352 188 201 152 122 71 188 192 251 171 267 322 19 358 23 78 198
152 104 146 196 253 259 335 353 25 31 47 31 34 79 115 81 22 148 118 108 159 108 102 96 109 149 177 186 131 171 203 168 161 157 196 235 267 276 298 290 301 312 312 229 204
146 149 157 175 236 230 9 324 309 42 28 18 30 34 12 109 83 95 80 89 58 42 41 78 95 74 315 107 127 179 196 202 217 227 223 262 258 272 253 262 274 293 292 234 221
145 144 140 117 240 158 358 356 37 330 40 1 81 23 47 89 61 175 136 133 177 70 62 6 109 92 9 20 210 250 240 220 228 242 254 263 276 274 281 284 279 272 266 244 237
140 140 139 348 3 121 15 32 26 282 26 62 305 104 60 19 328 323 243 162 156 139 138 152 138 118 238 340 290 278 237 213 208 232 226 248 253 281 276 267 271 273 264 248 258
Wind_Speed_850mb
41 40 40 40 41 37 35 31 27 20 15 14 10 14 19 22 23 27 37 34 50 15 27 33 31 22 34 29 41 22 6 5 7 10 10 10 3 6 13 16 27 21 28 23 21
43 39 37 39 38 39 36 26 22 18 17 15 14 11 15 18 17 25 38 35 33 38 16 38 38 31 20 23 24 16 17 12 4 3 6 11 10 5 9 14 7 28 32 10 30
46 46 35 36 35 32 31 29 23 21 19 15 10 6 8 8 7 10 32 42 28 32 27 35 38 35 19 27 21 21 26 20 11 9 12 8 5 5 4 7 7 28 40 10 26
31 44 45 30 32 30 26 21 21 18 17 15 10 3 8 15 7 7 12 37 30 25 26 27 39 32 11 17 24 17 45 39 37 12 9 6 6 6 5 5 7 23 33 31 26
27 29 41 39 29 26 23 18 18 18 16 14 13 6 7 11 8 15 8 26 34 31 37 28 45 30 10 17 22 14 24 39 58 13 1 9 7 8 27 29 25 24 27 42 15
36 29 24 37 30 24 20 19 14 14 14 8 18 2 5 3 12 23 9 10 23 32 45 30 34 34 13 27 18 21 19 46 35 26 25 21 13 8 28 16 20 30 22 39 25
39 37 26 24 30 26 19 19 17 12 12 8 11 6 3 9 15 10 26 17 25 43 48 36 26 35 10 10 19 5 16 15 28 38 15 22 30 30 32 38 39 39 30 35 33
38 39 37 27 17 25 19 17 18 10 9 8 3 4 1 8 15 11 4 8 30 39 42 40 14 42 4 15 11 8 11 13 11 34 18 28 28 26 29 30 42 43 50 38 33
40 37 38 28 20 16 17 12 13 8 5 5 4 6 2 7 6 13 16 10 33 38 34 40 26 18 10 12 7 7 13 17 15 31 17 21 7 12 18 31 56 48 47 44 41
41 39 37 30 21 16 13 11 9 6 3 3 6 3 8 12 3 6 4 11 43 38 32 23 16 8 6 10 25 17 10 7 8 16 12 16 5 12 14 27 48 55 61 56 49
41 40 36 31 21 14 9 7 4 3 2 2 2 4 6 6 6 4 11 9 42 35 11 2 16 32 19 11 8 13 9 12 7 18 14 17 8 15 21 19 28 42 54 61 57
39 38 36 32 20 11 6 2 4 2 2 0 3 7 7 9 4 10 12 5 23 19 14 6 7 15 20 14 11 17 13 6 4 17 15 17 26 27 24 22 37 45 62 63 71
38 36 32 31 13 9 7 5 6 7 3 2 2 4 3 6 7 13 8 17 21 11 9 6 10 14 20 12 13 4 17 10 11 9 4 14 12 18 14 24 40 53 59 62 66
38 36 29 19 4 9 7 10 5 2 4 2 3 2 3 4 7 13 11 10 7 14 7 5 21 22 15 15 11 7 9 14 20 18 10 4 8 9 24 30 34 52 61 65 68
38 33 24 3 3 10 5 10 2 5 6 2 2 1 3 6 10 11 9 9 9 14 6 4 24 31 23 13 12 8 10 11 7 8 6 1 4 8 12 37 36 41 52 64 56
35 23 10 3 9 9 10 7 4 9 3 5 1 2 5 4 1 7 8 17 20 10 2 9 8 7 10 3 2 15 12 13 8 5 3 7 8 9 10 16 8 37 58 71 70
24 11 7 10 7 16 9 4 6 8 7 8 6 5 2 2 3 5 4 10 7 9 8 9 6 5 7 12 8 9 10 5 3 2 7 2 6 19 11 12 9 14 35 49 67
11 14 16 14 16 13 7 6 11 1 8 6 7 4 4 6 2 9 11 6 3 8 5 6 15 3 9 7 12 5 8 8 12 8 5 2 10 10 8 8 14 22 27 26 24
15 16 14 16 13 9 1 8 9 7 3 13 9 6 1 4 5 0 4 5 6 6 6 7 7 5 7 3 3 6 2 5 12 5 3 5 8 18 9 11 9 18 20 24 32
19 15 13 11 10 6 4 4 2 6 11 2 6 9 9 6 6 2 1 3 6 4 4 5 11 8 3 1 11 6 11 4 4 6 7 3 6 8 3 6 14 15 22 23 22
16 7 6 10 8 1 0 7 6 8 11 9 8 6 3 9 9 7 8 4 4 3 2 7 6 6 6 3 12 5 1 7 7 4 5 1 7 11 10 6 12 25 27 16 20
9 5 3 12 3 2 4 8 2 1 4 5 3 8 3 6 10 1 9 3 15 14 7 6 8 9 4 2 5 5 7 9 7 7 2 3 11 7 12 10 7 19 16 11 9
11 8 7 9 2 5 8 5 1 6 5 6 4 3 11 10 7 6 4 4 20 11 11 9 3 8 4 6 4 5 7 5 6 5 10 7 8 6 4 9 12 9 9 4 12
10 5 4 7 4 3 7 7 3 7 6 4 5 6 7 6 8 8 4 3 9 6 12 9 6 8 10 7 8 10 10 10 6 5 8 26 22 23 27 22 25 30 26 14 29
7 3 7 5 5 2 3 4 3 6 7 23 10 10 3 7 5 6 5 6 12 8 9 6 6 4 2 2 5 6 8 19 25 27 21 27 31 20 18 22 35 43 34 25 37
10 10 9 4 2 3 7 8 6 9 9 6 9 11 10 9 3 9 10 4 5 7 5 7 2 3 8 6 2 9 14 14 27 33 27 36 42 30 61 48 34 44 38 35 43
13 18 11 6 2 5 1 1 4 3 9 13 4 5 14 5 7 4 3 5 13 12 7 8 9 4 4 5 5 11 18 23 9 11 17 25 38 22 24 27 35 49 47 46 51
Wind_Direction_850mb
351 353 356 355 356 354 351 353 350 349 335 320 290 241 253 265 242 227 223 221 208 195 199 194 191 189 192 182 192 191 39 223 205 167 135 112 124 77 104 50 69 55 23 318 182
347 351 353 353 353 359 358 352 352 358 347 319 310 298 266 260 246 231 222 223 213 218 186 192 183 178 169 169 172 160 201 243 183 32 120 92 86 10 109 76 19 24 24 16 175
340 347 351 356 354 360 0 0 349 348 346 352 332 298 263 240 224 244 251 208 211 212 207 187 188 180 175 168 183 171 200 189 242 146 115 76 66 16 93 99 53 357 2 349 189
337 339 349 349 351 359 357 5 2 7 5 5 348 308 218 179 198 177 194 208 206 185 199 184 183 182 157 168 186 180 217 219 233 127 156 175 210 292 231 187 333 353 358 359 221
327 332 338 342 345 353 355 354 5 4 9 22 14 2 179 202 229 208 88 204 197 200 200 178 178 175 171 173 157 199 162 190 217 205 202 174 215 253 266 272 279 293 337 0 247
338 326 325 335 337 339 348 343 345 351 358 25 7 14 198 238 272 243 227 217 203 193 198 190 185 181 186 175 163 189 186 198 188 184 243 281 252 236 265 268 271 280 313 343 340
332 335 321 306 334 326 329 337 324 340 349 346 9 95 232 278 293 308 234 292 191 196 195 194 180 181 168 133 172 101 163 141 175 169 173 222 268 233 258 269 280 275 281 320 344
336 330 329 330 316 324 313 328 314 325 340 359 353 334 294 339 276 213 256 237 199 192 207 193 175 189 139 124 113 138 144 177 160 158 172 156 248 265 278 272 274 270 269 284 323
332 329 328 333 312 306 308 305 333 323 312 25 20 4 56 11 343 79 9 271 181 183 190 200 169 175 127 127 113 203 183 181 172 180 160 203 195 243 243 246 258 260 265 269 297
325 328 330 327 314 291 303 283 292 320 308 318 6 356 52 331 8 331 339 172 172 170 165 177 171 130 109 169 190 179 118 146 162 183 171 204 264 330 228 214 238 236 254 261 279
324 326 328 321 317 292 304 298 279 265 270 69 62 316 340 16 7 64 45 127 166 144 167 237 171 187 163 150 126 118 121 121 134 173 175 191 208 251 231 225 244 237 239 252 265
323 322 324 320 321 269 254 208 117 2 135 321 308 317 332 344 351 60 100 58 158 134 126 124 136 149 126 128 126 138 125 154 71 170 167 181 220 228 206 222 225 226 237 252 259
320 323 324 321 316 245 212 180 133 19 79 5 41 360 37 21 357 25 85 109 111 102 80 108 157 161 142 134 115 86 162 176 151 139 250 163 243 231 227 223 226 234 245 241 247
321 321 320 323 303 202 187 176 155 336 82 111 60 20 74 67 21 28 90 108 49 100 77 7 148 158 162 154 129 139 187 156 142 139 194 188 266 237 217 229 219 221 235 232 243
322 324 320 277 168 164 164 171 184 151 93 62 46 144 62 79 137 23 71 98 95 121 117 68 168 156 170 158 145 191 145 130 108 99 123 351 297 267 209 227 225 225 235 236 249
334 332 312 157 197 156 155 155 141 45 52 113 43 94 35 34 84 75 49 79 93 82 72 256 104 100 170 129 182 134 94 58 61 87 283 211 194 251 214 233 232 223 226 237 240
348 15 93 85 99 142 146 136 27 96 198 144 120 178 221 109 144 136 90 129 144 131 189 84 82 59 68 103 35 87 91 86 108 191 222 147 199 264 257 241 220 238 244 241 239
46 79 89 78 113 121 134 38 62 262 59 149 123 88 137 163 66 167 141 141 101 114 77 113 139 26 346 110 155 172 149 149 173 188 212 37 228 246 257 311 292 280 271 259 239
112 107 91 112 126 150 48 61 201 213 126 132 97 119 164 229 152 40 65 137 148 141 129 121 94 142 60 125 95 182 164 132 104 30 68 216 289 286 317 316 337 296 280 277 256
136 102 82 131 154 146 70 279 142 209 115 110 171 193 162 164 83 112 216 135 124 170 202 171 106 32 108 119 44 137 154 74 11 138 236 275 268 236 270 311 316 325 324 288 261
144 88 73 157 155 97 159 231 253 214 192 157 187 133 107 137 156 182 204 14 115 119 47 134 82 116 107 216 167 129 133 55 112 120 186 269 261 211 208 240 291 305 331 304 252
155 88 154 153 278 341 238 206 281 42 173 236 169 96 71 113 155 183 209 254 179 165 132 197 120 130 134 89 125 105 171 151 146 234 131 139 258 202 220 255 274 339 359 346 242
137 114 161 183 313 284 282 285 16 27 36 26 68 85 146 176 112 219 163 264 170 161 164 185 94 104 116 157 352 188 201 152 122 71 188 192 251 171 267 322 19 358 23 78 198
152 104 146 196 253 259 335 353 25 31 47 31 34 79 115 81 22 148 118 108 159 108 102 96 109 149 177 186 131 171 203 168 161 157 196 235 267 276 298 290 301 312 312 229 204
146 149 157 175 236 230 9 324 309 42 28 18 30 34 12 109 83 95 80 89 58 42 41 78 95 74 315 107 127 179 196 202 217 227 223 262 258 272 253 262 274 293 292 234 221
145 144 140 117 240 158 358 356 37 330 40 1 81 23 47 89 61 175 136 133 177 70 62 6 109 92 9 20 210 250 240 220 228 242 254 263 276 274 281 284 279 272 266 244 237
140 140 139 348 3 121 15 32 26 282 26 62 305 104 60 19 328 323 243 162 156 139 138 152 138 118 238 340 290 278 237 213 208 232 226 248 253 281 276 267 271 273 264 248 258